Vinton, IA

4:12 AM CDT on September 23, 2017 (GMT -0500)
Vinton-Veterans Memorial

Weather History for KVTI - September, 2014

Change the Weather History Date:

Monday, September 1, 2014

  Actual Average Record
Temperature  
Mean Temperature 72 °F -  
Max Temperature 80 °F 81 °F 98 °F (1953)
Min Temperature 63 °F 57 °F 34 °F (1949)
Cooling Degree Days 6    
Growing Degree Days 22 (Base 50)    
Moisture  
Dew Point 64 °F    
Average Humidity 80    
Maximum Humidity 94    
Minimum Humidity 59    
Precipitation  
Precipitation 0.33 in - - ()
Sea Level Pressure  
Sea Level Pressure 29.78 in    
Wind  
Wind Speed 8 mph (WSW)    
Max Wind Speed 20 mph    
Max Gust Speed 31 mph    
Visibility 10 miles    
Events Rain    
Averages and records for this station are not official NWS values.
T = Trace of Precipitation, MM = Missing Value Source: NWS Daily Summary

Daily Weather History Graph

Daily Weather History Graph

Search for Another Location

Airport or City:

Trip Planner

Search our weather history database for the weather conditions in past years. The results will help you decide how hot, cold, wet, or windy it might be!

Date:

Astronomy

Sep. 01, 2014 Rise Set
Actual Time 6:33 AM CDT 7:41 PM CDT
Civil Twilight 6:04 AM CDT 8:10 PM CDT
Nautical Twilight 5:30 AM CDT 8:44 PM CDT
Astronomical Twilight 4:53 AM CDT 9:21 PM CDT
Moon 1:27 PM CDT (9/1) 11:35 PM CDT (9/1)
Length of Visible Light 14h 06m
Length of Day
13h 08m
Waxing Crescent, 42% of the Moon is Illuminated
Sep 1
Waxing Crescent
Sep 2
First Quarter
Sep 8
Full
Sep 15
Last Quarter
Sep 24
New

Hourly Weather History & Observations

Time (CDT) Temp. Heat Index Dew Point Humidity Pressure Visibility Wind Dir Wind Speed Gust Speed Precip Events Conditions
12:15 AM 65.3 °F - 63.1 °F 93% 29.86 in 5.0 mi West 5.8 mph - 0.06 in Rain Rain
12:35 AM 65.3 °F - 63.1 °F 93% 29.85 in 5.0 mi Calm Calm - 0.12 in Rain Rain
12:55 AM 65.3 °F - 63.5 °F 94% 29.85 in 5.0 mi Calm Calm - 0.18 in Rain Rain
1:15 AM 65.3 °F - 63.5 °F 94% 29.82 in 7.0 mi East 8.1 mph - 0.02 in Rain Rain
1:35 AM 65.3 °F - 63.5 °F 94% 29.81 in 7.0 mi East 9.2 mph - 0.06 in Rain Heavy Rain
1:55 AM 65.3 °F - 63.5 °F 94% 29.72 in 10.0 mi ESE 19.6 mph - 0.08 in Rain Light Rain
2:15 AM 65.3 °F - 63.7 °F 94% 29.77 in 10.0 mi South 10.4 mph 23.0 mph N/A   Scattered Clouds
2:35 AM 65.3 °F - 63.5 °F 94% 29.75 in 10.0 mi ESE 9.2 mph - N/A   Drizzle
2:55 AM 65.3 °F - 63.5 °F 94% 29.69 in 10.0 mi SE 18.4 mph 23.0 mph N/A Rain Light Rain
3:15 AM 65.3 °F - 63.5 °F 94% 29.69 in 10.0 mi SE 16.1 mph 31.1 mph N/A   Scattered Clouds
3:35 AM 65.3 °F - 63.5 °F 94% 29.69 in 10.0 mi Calm Calm - N/A   Clear
3:55 AM 65.3 °F - 63.1 °F 93% 29.73 in 10.0 mi West 6.9 mph - N/A   Scattered Clouds
4:15 AM 65.3 °F - 63.1 °F 93% 29.75 in 10.0 mi SW 9.2 mph - N/A   Mostly Cloudy
4:35 AM 65.3 °F - 62.8 °F 92% 29.74 in 10.0 mi South 6.9 mph - N/A   Mostly Cloudy
4:55 AM 65.3 °F - 62.8 °F 92% 29.72 in 10.0 mi SSW 5.8 mph - N/A   Scattered Clouds
5:15 AM 65.3 °F - 63.0 °F 92% 29.73 in 10.0 mi SSW 5.8 mph - N/A   Scattered Clouds
5:35 AM 65.3 °F - 63.1 °F 93% 29.73 in 10.0 mi SSW 6.9 mph - N/A   Clear
5:55 AM 65.3 °F - 63.1 °F 93% 29.73 in 10.0 mi South 6.9 mph - N/A   Scattered Clouds
6:15 AM 65.3 °F - 63.1 °F 93% 29.73 in 10.0 mi South 4.6 mph - N/A   Scattered Clouds
6:35 AM 65.3 °F - 63.1 °F 93% 29.72 in 10.0 mi SSW 4.6 mph - N/A   Scattered Clouds
6:55 AM 65.3 °F - 63.1 °F 93% 29.73 in 10.0 mi South 5.8 mph - N/A   Scattered Clouds
7:15 AM 65.3 °F - 63.1 °F 93% 29.74 in 10.0 mi SSW 6.9 mph - N/A Rain Light Rain
7:35 AM 65.3 °F - 63.1 °F 93% 29.74 in 5.0 mi SSW 9.2 mph - 0.05 in Rain Heavy Rain
7:55 AM 65.3 °F - 63.1 °F 93% 29.74 in 10.0 mi SSW 5.8 mph - 0.06 in   Mostly Cloudy
8:15 AM 65.7 °F - 63.5 °F 93% 29.75 in 7.0 mi SW 8.1 mph - N/A Rain Rain
8:35 AM 68.0 °F - 65.7 °F 92% 29.74 in 10.0 mi SSW 8.1 mph 16.1 mph 0.01 in   Scattered Clouds
8:55 AM 70.3 °F - 67.1 °F 89% 29.74 in 10.0 mi SW 10.4 mph - 0.01 in   Scattered Clouds
9:15 AM 70.3 °F - 66.2 °F 87% 29.74 in 10.0 mi WSW 12.7 mph 17.3 mph N/A   Mostly Cloudy
9:35 AM 70.3 °F - 65.5 °F 85% 29.74 in 10.0 mi SW 9.2 mph 20.7 mph N/A   Overcast
9:55 AM 70.3 °F - 65.5 °F 85% 29.75 in 10.0 mi SW 12.7 mph 19.6 mph N/A   Overcast
10:15 AM 72.1 °F - 66.2 °F 82% 29.75 in 10.0 mi WSW 9.2 mph 18.4 mph N/A   Mostly Cloudy
10:35 AM 74.1 °F - 67.5 °F 80% 29.77 in 10.0 mi West 10.4 mph 19.6 mph N/A   Mostly Cloudy
11:15 AM 75.4 °F - 67.6 °F 77% 29.77 in 10.0 mi WSW 13.8 mph 19.6 mph N/A   Mostly Cloudy
11:35 AM 75.4 °F - 66.2 °F 73% 29.77 in 10.0 mi WSW 11.5 mph 18.4 mph N/A   Scattered Clouds
11:55 AM 75.9 °F - 65.5 °F 70% 29.77 in 10.0 mi West 15.0 mph 21.9 mph N/A   Scattered Clouds
12:35 PM 77.9 °F - 65.5 °F 65% 29.76 in 10.0 mi WSW 11.5 mph 24.2 mph N/A   Scattered Clouds
12:55 PM 77.9 °F - 64.4 °F 63% 29.76 in 10.0 mi West 12.7 mph 20.7 mph N/A   Scattered Clouds
1:15 PM 79.3 °F - 65.1 °F 62% 29.76 in 10.0 mi West 13.8 mph 21.9 mph N/A   Scattered Clouds
1:35 PM 78.6 °F - 64.9 °F 63% 29.77 in 10.0 mi West 12.7 mph 19.6 mph N/A   Scattered Clouds
1:55 PM 80.6 °F 82.4 °F 65.3 °F 59% 29.77 in 10.0 mi West 13.8 mph 20.7 mph N/A   Scattered Clouds
2:15 PM 77.9 °F - 64.8 °F 64% 29.78 in 10.0 mi West 11.5 mph 17.3 mph N/A   Scattered Clouds
2:35 PM 80.6 °F 82.4 °F 65.1 °F 59% 29.78 in 10.0 mi West 11.5 mph 17.3 mph N/A   Scattered Clouds
3:15 PM 79.2 °F - 64.6 °F 61% 29.78 in 10.0 mi WNW 16.1 mph 23.0 mph N/A   Scattered Clouds
3:35 PM 79.3 °F - 65.1 °F 62% 29.78 in 10.0 mi WNW 17.3 mph 23.0 mph N/A   Scattered Clouds
3:55 PM 77.9 °F - 64.6 °F 63% 29.79 in 10.0 mi WNW 11.5 mph 20.7 mph N/A   Clear
4:15 PM 80.4 °F 82.2 °F 64.8 °F 59% 29.79 in 10.0 mi WNW 11.5 mph 20.7 mph N/A   Scattered Clouds
4:35 PM 79.2 °F - 64.2 °F 60% 29.80 in 10.0 mi WNW 11.5 mph 18.4 mph N/A   Clear
4:55 PM 77.9 °F - 62.8 °F 60% 29.80 in 10.0 mi WNW 10.4 mph 18.4 mph N/A   Clear
5:15 PM 77.9 °F - 62.8 °F 60% 29.81 in 10.0 mi WNW 9.2 mph - N/A   Scattered Clouds
5:35 PM 77.9 °F - 63.5 °F 61% 29.81 in 10.0 mi NW 9.2 mph 16.1 mph N/A   Scattered Clouds
5:55 PM 77.7 °F - 63.5 °F 61% 29.82 in 10.0 mi NW 6.9 mph - N/A   Clear
6:15 PM 77.2 °F - 61.9 °F 59% 29.82 in 10.0 mi WNW 9.2 mph - N/A   Clear
6:35 PM 75.4 °F - 62.6 °F 64% 29.83 in 10.0 mi West 5.8 mph - N/A   Clear
6:55 PM 75.4 °F - 64.0 °F 68% 29.83 in 10.0 mi West 3.5 mph - N/A   Clear
7:15 PM 72.9 °F - 63.0 °F 71% 29.83 in 10.0 mi West 3.5 mph - N/A   Clear
7:35 PM 70.3 °F - 63.1 °F 78% 29.83 in 10.0 mi West 3.5 mph - N/A   Clear
7:55 PM 70.3 °F - 63.3 °F 78% 29.83 in 10.0 mi WNW 3.5 mph - N/A   Clear
8:15 PM 70.3 °F - 62.6 °F 76% 29.83 in 10.0 mi West 3.5 mph - N/A   Clear
8:35 PM 70.3 °F - 63.5 °F 79% 29.85 in 10.0 mi West 3.5 mph - N/A   Clear
8:55 PM 70.3 °F - 62.4 °F 76% 29.85 in 10.0 mi Calm Calm - N/A   Clear
9:15 PM 70.3 °F - 60.3 °F 70% 29.85 in 10.0 mi West 3.5 mph - N/A   Clear
9:35 PM 70.3 °F - 63.0 °F 77% 29.87 in 10.0 mi SW 3.5 mph - N/A   Clear
9:55 PM 70.3 °F - 65.1 °F 83% 29.84 in 10.0 mi Calm Calm - N/A   Clear
10:15 PM 68.0 °F - 63.5 °F 85% 29.84 in 10.0 mi Calm Calm - N/A   Clear
10:35 PM 68.5 °F - 63.0 °F 82% 29.85 in 10.0 mi Calm Calm - N/A   Clear
10:55 PM 65.3 °F - 62.1 °F 89% 29.85 in 10.0 mi Calm Calm - N/A   Clear
11:15 PM 63.7 °F - 61.0 °F 91% 29.86 in 10.0 mi Calm Calm - N/A   Clear
11:35 PM 65.3 °F - 63.0 °F 92% 29.86 in 10.0 mi Calm Calm - N/A   Clear
11:55 PM 63.9 °F - 61.7 °F 93% 29.87 in 7.0 mi Calm Calm - N/A   Clear